Index of /20260505/WXO-DD/model_gdps/15km/00/049
Name Last modified Size Description
Parent Directory -
20260505T00Z_MSC_GDPS_AirTemp_AGL-120m_LatLon0.15_PT049H.grib2 2026-05-05 03:54 900K
20260505T00Z_MSC_GDPS_AirTemp_AGL-2m_LatLon0.15_PT049H.grib2 2026-05-05 03:54 1.0M
20260505T00Z_MSC_GDPS_AirTemp_AGL-40m_LatLon0.15_PT049H.grib2 2026-05-05 03:54 922K
20260505T00Z_MSC_GDPS_AirTemp_AGL-80m_LatLon0.15_PT049H.grib2 2026-05-05 03:54 910K
20260505T00Z_MSC_GDPS_Albedo_Sfc_LatLon0.15_PT049H.grib2 2026-05-05 03:54 244K
20260505T00Z_MSC_GDPS_ConvectivePrecip-Accum_Sfc_LatLon0.15_PT049H.grib2 2026-05-05 03:54 2.9M
20260505T00Z_MSC_GDPS_DewPointDepression_AGL-2m_LatLon0.15_PT049H.grib2 2026-05-05 03:54 761K
20260505T00Z_MSC_GDPS_DewPoint_AGL-2m_LatLon0.15_PT049H.grib2 2026-05-05 03:54 602K
20260505T00Z_MSC_GDPS_DownwardLongwaveRadiationFlux-Accum_Sfc_LatLon0.15_PT049H.grib2 2026-05-05 03:54 825K
20260505T00Z_MSC_GDPS_DownwardShortwaveRadiationFlux-Accum_Sfc_LatLon0.15_PT049H.grib2 2026-05-05 03:54 1.0M
20260505T00Z_MSC_GDPS_FreezingRain-Accum1h_Sfc_LatLon0.15_PT049H.grib2 2026-05-05 03:54 36K
20260505T00Z_MSC_GDPS_FreezingRain-Accum_Sfc_LatLon0.15_PT049H.grib2 2026-05-05 03:54 233K
20260505T00Z_MSC_GDPS_IcePellets-Accum1h_Sfc_LatLon0.15_PT049H.grib2 2026-05-05 03:54 9.4K
20260505T00Z_MSC_GDPS_IcePellets-Accum_Sfc_LatLon0.15_PT049H.grib2 2026-05-05 03:54 67K
20260505T00Z_MSC_GDPS_LatentHeatNetFlux_Sfc_LatLon0.15_PT049H.grib2 2026-05-05 03:54 676K
20260505T00Z_MSC_GDPS_NetLongwaveRadiationFlux-Accum_Sfc_LatLon0.15_PT049H.grib2 2026-05-05 03:54 1.1M
20260505T00Z_MSC_GDPS_NetShortwaveRadiationFlux-Accum_Sfc_LatLon0.15_PT049H.grib2 2026-05-05 03:54 1.0M
20260505T00Z_MSC_GDPS_O3MixingRatio_Sfc_LatLon0.15_PT049H.grib2 2026-05-05 04:45 2.3M
20260505T00Z_MSC_GDPS_O3_EAtm_LatLon0.15_PT049H.grib2 2026-05-05 04:45 2.5M
20260505T00Z_MSC_GDPS_PlanetaryBoundaryLayerHeight_Sfc_LatLon0.15_PT049H.grib2 2026-05-05 03:54 2.4M
20260505T00Z_MSC_GDPS_Precip-Accum1h_Sfc_LatLon0.15_PT049H.grib2 2026-05-05 03:54 3.2M
20260505T00Z_MSC_GDPS_Precip-Accum_Sfc_LatLon0.15_PT049H.grib2 2026-05-05 03:54 4.6M
20260505T00Z_MSC_GDPS_PrecipRate_Sfc_LatLon0.15_PT049H.grib2 2026-05-05 03:54 2.9M
20260505T00Z_MSC_GDPS_Pressure_MSL_LatLon0.15_PT049H.grib2 2026-05-05 03:54 713K
20260505T00Z_MSC_GDPS_Pressure_Sfc_LatLon0.15_PT049H.grib2 2026-05-05 03:54 1.1M
20260505T00Z_MSC_GDPS_RadiativeTemp_Sfc_LatLon0.15_PT049H.grib2 2026-05-05 03:54 654K
20260505T00Z_MSC_GDPS_Rain-Accum1h_Sfc_LatLon0.15_PT049H.grib2 2026-05-05 03:54 1.5M
20260505T00Z_MSC_GDPS_Rain-Accum_Sfc_LatLon0.15_PT049H.grib2 2026-05-05 03:54 3.5M
20260505T00Z_MSC_GDPS_RelativeHumidity_AGL-2m_LatLon0.15_PT049H.grib2 2026-05-05 03:54 1.0M
20260505T00Z_MSC_GDPS_Runoff-Accum_Sfc_LatLon0.15_PT049H.grib2 2026-05-05 03:54 126K
20260505T00Z_MSC_GDPS_SensibleHeatNetFlux_Sfc_LatLon0.15_PT049H.grib2 2026-05-05 03:54 454K
20260505T00Z_MSC_GDPS_Snow-Accum1h_Sfc_LatLon0.15_PT049H.grib2 2026-05-05 03:54 1.2M
20260505T00Z_MSC_GDPS_Snow-Accum_Sfc_LatLon0.15_PT049H.grib2 2026-05-05 03:54 2.0M
20260505T00Z_MSC_GDPS_SnowDepth_Sfc_LatLon0.15_PT049H.grib2 2026-05-05 03:54 1.7M
20260505T00Z_MSC_GDPS_SoilTemp_DBS-0to10cm_LatLon0.15_PT049H.grib2 2026-05-05 03:54 505K
20260505T00Z_MSC_GDPS_SoilTemp_Sfc_LatLon0.15_PT049H.grib2 2026-05-05 03:54 559K
20260505T00Z_MSC_GDPS_SoilVolumetricWaterContent_DBS-0to10cm_LatLon0.15_PT049H.grib2 2026-05-05 03:54 594K
20260505T00Z_MSC_GDPS_SoilVolumetricWaterContent_DBS-0to1cm_LatLon0.15_PT049H.grib2 2026-05-05 03:54 657K
20260505T00Z_MSC_GDPS_SpecificHumidity_AGL-120m_LatLon0.15_PT049H.grib2 2026-05-05 03:54 1.1M
20260505T00Z_MSC_GDPS_SpecificHumidity_AGL-2m_LatLon0.15_PT049H.grib2 2026-05-05 03:54 1.2M
20260505T00Z_MSC_GDPS_SpecificHumidity_AGL-40m_LatLon0.15_PT049H.grib2 2026-05-05 03:54 1.1M
20260505T00Z_MSC_GDPS_SpecificHumidity_AGL-80m_LatLon0.15_PT049H.grib2 2026-05-05 03:54 1.1M
20260505T00Z_MSC_GDPS_SpecificHumidity_Sfc_LatLon0.15_PT049H.grib2 2026-05-05 03:54 632K
20260505T00Z_MSC_GDPS_TotalCloudCover_Sfc_LatLon0.15_PT049H.grib2 2026-05-05 03:54 828K
20260505T00Z_MSC_GDPS_UVIndex-ClearSky_Sfc_LatLon0.15_PT049H.grib2 2026-05-05 04:45 1.0M
20260505T00Z_MSC_GDPS_UVIndex_Sfc_LatLon0.15_PT049H.grib2 2026-05-05 04:45 1.5M
20260505T00Z_MSC_GDPS_UpwardLongwaveRadiationFlux_NTAtm_LatLon0.15_PT049H.grib2 2026-05-05 03:54 1.0M
20260505T00Z_MSC_GDPS_WindDir_AGL-10m_LatLon0.15_PT049H.grib2 2026-05-05 03:54 1.3M
20260505T00Z_MSC_GDPS_WindDir_AGL-120m_LatLon0.15_PT049H.grib2 2026-05-05 03:54 1.3M
20260505T00Z_MSC_GDPS_WindDir_AGL-40m_LatLon0.15_PT049H.grib2 2026-05-05 03:54 1.4M
20260505T00Z_MSC_GDPS_WindDir_AGL-80m_LatLon0.15_PT049H.grib2 2026-05-05 03:54 1.3M
20260505T00Z_MSC_GDPS_WindDir_IsbL-0700_LatLon0.15_PT049H.grib2 2026-05-05 03:54 1.6M
20260505T00Z_MSC_GDPS_WindGust-Max_AGL-10m_LatLon0.15_PT049H.grib2 2026-05-05 03:54 2.2M
20260505T00Z_MSC_GDPS_WindGust-Min_AGL-10m_LatLon0.15_PT049H.grib2 2026-05-05 03:54 2.2M
20260505T00Z_MSC_GDPS_WindGust_AGL-10m_LatLon0.15_PT049H.grib2 2026-05-05 03:54 2.2M
20260505T00Z_MSC_GDPS_WindSpeed_AGL-10m_LatLon0.15_PT049H.grib2 2026-05-05 03:54 1.1M
20260505T00Z_MSC_GDPS_WindSpeed_AGL-120m_LatLon0.15_PT049H.grib2 2026-05-05 03:54 1.2M
20260505T00Z_MSC_GDPS_WindSpeed_AGL-40m_LatLon0.15_PT049H.grib2 2026-05-05 03:54 1.2M
20260505T00Z_MSC_GDPS_WindSpeed_AGL-80m_LatLon0.15_PT049H.grib2 2026-05-05 03:54 1.2M
20260505T00Z_MSC_GDPS_WindSpeed_IsbL-0700_LatLon0.15_PT049H.grib2 2026-05-05 03:54 1.5M
20260505T00Z_MSC_GDPS_WindU_AGL-10m_LatLon0.15_PT049H.grib2 2026-05-05 03:54 1.3M
20260505T00Z_MSC_GDPS_WindU_AGL-120m_LatLon0.15_PT049H.grib2 2026-05-05 03:54 1.0M
20260505T00Z_MSC_GDPS_WindU_AGL-40m_LatLon0.15_PT049H.grib2 2026-05-05 03:54 956K
20260505T00Z_MSC_GDPS_WindU_AGL-80m_LatLon0.15_PT049H.grib2 2026-05-05 03:54 962K
20260505T00Z_MSC_GDPS_WindU_IsbL-0700_LatLon0.15_PT049H.grib2 2026-05-05 03:54 1.2M
20260505T00Z_MSC_GDPS_WindV_AGL-10m_LatLon0.15_PT049H.grib2 2026-05-05 03:54 1.3M
20260505T00Z_MSC_GDPS_WindV_AGL-120m_LatLon0.15_PT049H.grib2 2026-05-05 03:54 963K
20260505T00Z_MSC_GDPS_WindV_AGL-40m_LatLon0.15_PT049H.grib2 2026-05-05 03:54 957K
20260505T00Z_MSC_GDPS_WindV_AGL-80m_LatLon0.15_PT049H.grib2 2026-05-05 03:54 963K
20260505T00Z_MSC_GDPS_WindV_IsbL-0700_LatLon0.15_PT049H.grib2 2026-05-05 03:54 1.2M